Regional Weather Roundup
Issued by NWS

Home | Current Version | Previous Version | Text Only | Print | Product List | Glossary On
Versions: 1 2 3 4 5 6 7 8 9 10 11 12 13 14 15 16 17 18 19 20 21 22 23 24 25 26 27 28 29 30 31 32 33 34 35 36 37 38 39 40 41 42 43 44 45 46 47 48 49 50
000
ASUS44 KLIX 231511
RWRLA
LOUISIANA WEATHER ROUNDUP
NATIONAL WEATHER SERVICE NEW ORLEANS LA
1000 AM CDT SAT JUL 23 2016

NOTE: "FAIR" INDICATES FEW OR NO CLOUDS BELOW 12,000 FEET WITH NO
      SIGNIFICANT WEATHER AND/OR OBSTRUCTIONS TO VISIBILITY.
      SKY/WX - SKY CONDITION AND SIGNIFICANT WEATHER.
      TMP - AIR TEMPERATURE.    DP   - DEWPOINT TEMPERATURE.
      RH  - RELATIVE HUMIDITY.  PRES - PRESSURE.
      HX  - HEAT INDEX.         WCI  - WIND CHILL INDEX.

*  THESE STATIONS ARE NOT NWS OR FAA STATIONS AND ARE NOT UNDER
   NWS QUALITY CONTROL.

LAZ040-048-061>063-065-066-069-231600-
SOUTHEAST LOUISIANA

CITY           SKY/WX    TMP DP  RH WIND       PRES   REMARKS
N.O. AUDUBON     N/A     90 N/A N/A MISG        N/A
N.O. INTL ARPT PTSUNNY   89  76  65 W3        30.01S HX 100
N.O. LAKEFRONT MOSUNNY   86  76  71 VRB3      30.02S HX  96
N.O. DOWNTOWN* NOT AVBL
RESERVE*       FAIR      89  77  69 W5        30.02S HX 101
SLIDELL        MOSUNNY   87  77  72 CALM      30.01S HX  99
BATON ROUGE    MOSUNNY   86  75  69 VRB3      30.02S HX  95
BOOTHVILLE     CLOUDY    87  75  67 NE3       30.02S HX  96
BELLE CHASSE   MOSUNNY   87  77  72 VRB5      30.01S HX  99
BOGALUSA*      FAIR      83  76  80 SW5       30.04R
GALLIANO*      MOSUNNY   88  78  71 NW3       30.02F HX 100
NEW ROADS*     CLOUDY    84  77  80 CALM      30.02S
GONZALES*      FAIR      87  76  70 W5        30.01S HX  96
HAMMOND*       MOSUNNY   86  73  66 CALM      30.02S
HOUMA*         NOT AVBL
PORT FOURCHON* MOSUNNY   84  73  70 W8        30.02F

$$

LAZ041-044-053-054-231600-
SOUTHWEST LOUISIANA

CITY           SKY/WX    TMP DP  RH WIND       PRES   REMARKS
LAKE CHARLES   MOSUNNY   89  76  65 VRB3      30.01R HX 100
LAFAYETTE      PTSUNNY   88  77  69 W6        30.02S HX 100
PATTERSON      MOSUNNY   85  77  77 SW6       30.02S HX  95
SALT POINT       N/A     85  78  80 CALM      30.00S HX  96
NEW IBERIA     SUNNY     88  77  69 W5        30.02S HX 100
CHENAULT AIRPK PTSUNNY   88  75  66 W8        30.02  HX  97

$$

LAZ027-028-231600-
CENTRAL LOUISIANA

CITY           SKY/WX    TMP DP  RH WIND       PRES   REMARKS
FORT POLK      MOSUNNY   85  77  78 W10       30.02S HX  96
ALEXANDRIA INT PTSUNNY   87  77  72 W7        30.00S HX  99
ALEXANDRIA     SUNNY     86  79  79 W8        30.02S HX  99

$$

LAZ001-002-231600-
NORTHWEST LOUISIANA

CITY           SKY/WX    TMP DP  RH WIND       PRES   REMARKS
SHREVEPORT     MOSUNNY   89  77  67 SW8       29.99F HX 101
BARKSDALE AFB  SUNNY     89  75  62 W8        29.99F HX  99
DTN SHREVEPORT SUNNY     89  76  65 SW10      29.99F HX 100

$$

LAZ014-016-231600-
NORTHEAST LOUISIANA

CITY           SKY/WX    TMP DP  RH WIND       PRES   REMARKS
MONROE         MOSUNNY   86  79  79 SW5       30.00F HX  99
TALLULAH       MOSUNNY   85  77  77 VRB3      30.01F HX  95

$$




USA.gov is the U.S. government's official web portal to all federal, state and local government web resources and services.